EST,Max TemperatureF,Mean TemperatureF,Min TemperatureF,Max Dew PointF,MeanDew PointF,Min DewpointF,Max Humidity, Mean Humidity, Min Humidity, Max Sea Level PressureIn, Mean Sea Level PressureIn, Min Sea Level PressureIn, Max VisibilityMiles, Mean VisibilityMiles, Min VisibilityMiles, Max Wind SpeedMPH, Mean Wind SpeedMPH, Max Gust SpeedMPH,PrecipitationIn, CloudCover, Events, WindDirDegrees
2012-12-1,37,34,32,33,29,20,92,83,59,30.61,30.56,30.49,10,4,1,6,2,,0.04,8,Rain-Snow,10
2012-12-2,57,46,36,50,40,34,93,85,69,30.46,30.29,30.07,10,6,1,10,2,21,0.01,6,Rain,223
2012-12-3,60,45,30,47,38,28,93,81,47,30.30,30.18,30.04,10,6,1,12,6,17,0.00,2,,258
2012-12-4,57,42,28,54,39,26,96,89,77,30.33,30.24,30.02,10,5,0,10,2,,0.00,5,Fog-Rain,173
2012-12-5,59,48,36,55,39,17,89,65,41,30.12,29.95,29.86,10,10,6,17,10,28,0.05,5,Rain,263
2012-12-6,41,30,19,19,16,14,85,59,33,30.32,30.27,30.14,10,10,7,10,5,,0.00,0,,317
2012-12-7,46,32,18,42,31,14,93,85,63,30.30,30.16,30.05,10,8,3,7,1,,0.05,6,Rain,202
2012-12-8,50,44,37,47,44,36,100,93,89,30.03,29.94,29.85,10,3,0,6,1,,0.29,8,Fog-Rain,24
2012-12-9,51,42,33,44,35,27,97,84,46,30.29,30.15,29.97,10,5,0,9,1,,0.05,3,Fog-Rain,3
2012-12-10,62,52,43,59,54,40,97,91,86,30.13,29.72,29.51,10,6,2,14,7,33,1.21,8,Rain-Thunderstorm,196
2012-12-11,57,46,36,55,37,20,93,66,42,30.15,29.82,29.54,10,10,7,10,6,18,0.03,5,Rain,284
2012-12-12,39,32,26,25,22,19,89,66,43,30.43,30.33,30.17,10,10,6,9,3,,0.00,0,,309
2012-12-13,46,34,21,28,23,18,89,73,39,30.47,30.39,30.31,10,8,5,4,0,,0.00,0,,320
2012-12-14,50,36,21,28,21,18,89,65,32,30.28,30.17,30.06,10,9,6,12,3,18,0.00,0,,243
2012-12-15,43,33,23,28,22,19,88,71,38,30.33,30.27,30.18,10,9,3,7,1,,0.00,0,,46
2012-12-16,39,32,27,36,30,23,93,82,62,30.32,30.18,30.04,10,7,4,9,3,17,0.23,8,Rain,88
2012-12-17,48,44,39,45,43,37,93,91,89,30.03,29.89,29.75,9,4,1,8,5,,0.39,8,Rain,53
2012-12-18,54,50,45,51,46,41,93,88,77,29.73,29.51,29.41,10,7,1,12,5,,0.42,8,Rain,250
2012-12-19,48,44,37,40,31,28,82,63,50,30.01,29.66,29.45,10,10,10,18,10,28,0.00,6,,309
2012-12-20,45,36,28,33,30,24,89,74,53,30.20,30.12,30.03,10,10,10,9,4,,0.00,6,,345
2012-12-21,55,46,37,52,42,28,90,81,62,29.97,29.37,29.12,10,7,1,28,13,45,0.93,8,Rain,153
2012-12-22,39,34,30,32,22,14,82,58,44,29.66,29.43,29.26,10,10,9,20,10,33,0.01,5,Rain,263
2012-12-23,39,34,30,23,19,15,64,53,43,29.88,29.82,29.68,10,10,10,17,9,24,0.00,2,,251
2012-12-24,41,34,26,26,20,18,84,61,41,30.06,30.01,29.89,10,10,10,6,3,,0.00,1,,242
2012-12-25,35,32,26,31,28,19,93,85,72,30.22,30.04,29.96,10,7,1,8,2,,0.07,7,Rain-Snow,329
2012-12-26,37,28,18,34,24,13,89,75,60,30.30,30.17,29.85,10,9,4,12,4,21,0.33,5,Rain-Snow,51
2012-12-27,51,42,33,48,39,27,93,87,75,29.84,29.39,29.20,10,5,1,21,11,37,0.72,8,Rain-Snow,356
2012-12-28,37,32,26,27,21,18,78,66,51,30.02,29.87,29.63,10,10,10,15,11,26,0.00,2,,296
2012-12-29,35,28,21,32,28,19,92,86,70,30.01,29.63,29.33,10,4,1,14,3,22,0.74,7,Rain-Snow,2
2012-12-30,32,28,21,30,21,9,93,73,55,29.99,29.63,29.38,10,8,1,17,12,28,0.03,4,Snow,305
2012-12-31,35,26,19,23,17,8,66,63,55,30.06,29.96,29.80,10,10,10,14,7,,0.00,3,,246